Погода Петропавловск-Камч.

Погода Петропавловск-Камч. : погода сейчас, прогноз погоды и архив. Всё, что Вы хотите узнать о погоде Петропавловск-Камч.!

Хотите узнать прогноз погоды Петропавловск-Камч.? Тогда Вам сюда: Погода Петропавловск-Камч.

Поиск расширенной информации на нашем сайте:

Полезная информация:

Другие новости

Новости СМИ2

Главная страница сайта

Новости сайта

03.07.2017

Напоминаем, что на нашем специализированном сайте Метеоцентр.Азия вы можете получить высокодетализированные автоматические прогнозы погоды по пунктам России, СНГ и мира в авиационном формате (включающие направление и скорость ветра, видимость, явления погоды, количество и форму облачности, нижнюю и верхнюю границу облачности).

Рекомендуем:

Погода Петропавловск-Камч. - сегодня

Время (UTC), дата Ветер
(°,м/с) 
Видим.   Явления Облачность Т
(°С)
Тd
(°С)
f(%) Тe
(°С)
Pmin
(гПа)
dP
(гПа)
Po
(мм)
O2
(г/м3)
Тmin Tmax R s Состояние
почвы
21 18.05.19 330 (СЗ) 20000 м  слаб. ливневой дождь  10/8 600 м кучево-дожд., средняя 
[Cb cap|Ac und]
+8.8 +1.4 60 +8  1017.7  -0.4  761  297  +7.4    0.0     
00 19.05.19 тихо ()   10 км  слаб. ливневой дождь  10/10 600 м кучево-дожд. 
[Cb cap]
+6.8 +3.4 79 +7  1016.1  -1.6  760  298  +6.7         
03 19.05.19 тихо ()   20000 м  {ливн. осадки}  9/4 600 м средняя, верхняя 
[Sc|Ac trans|Ci fib]
+11.4 +6.1 70 +11  1013  -3  758  292           
06 19.05.19 150 (ЮВ) 10 км  туман на расстоянии{ливн. осадки}  10/3 600 м средняя, верхняя 
[Sc|Ac trans|Ci fib]
+6.4 +3.3 81 +4  1009.6  -3.5  755  297           
09 19.05.19 140 (ЮВ) 2{10}  10 км  в посл. час ливневой дождь  10/10 600 м кучево-дожд. 
[Cb cap]
+4.8 +2.7 86 +4  1008.3  -1.2  754  298    +11.7     
12 19.05.19 350 (С) 20000 м  {ливн. осадки}  8/8 600 м 
[Sc]
+5.9 +4.2 89 +6  1007.6  -0.5  754  297           
15 19.05.19 330 (СЗ) 20000 м    3/3 600 м 
[Sc]
+7.4 +3.7 77 +6  1006.2  -1.4  752  295           
18 19.05.19 340 (С) 20000 м    8/3 1000 м верхняя 
[Sc|Ci fib]
+8.5 +3.1 69 +7  1005.7  -0.5  752  293           
21 19.05.19 330 (СЗ) 7-11{13}  20000 м    8/6 1000 м верхняя 
[Sc|Ci fib]
+11.5 +3.9 60 +10  1006.2  0.6  752  290  +4.8    0.1     
00 20.05.19 320 (СЗ) 13-16{16}  20000 м    3/1 1000 м верхняя 
[Sc|Ci fib]
+12.5 +3.1 53 +10  1004.5  -1.6  751  289           
03 20.05.19 290 (З) 16-19{19}  20000 м    3/1 600 м средняя 
[Sc|Ac trans]
+11.7 +1.4 49 +9  1004.9  0.4  752  290           
06 20.05.19 280 (З) 12-15{19}  20000 м    3/1 1000 м верхняя 
[Sc|Ci fib]
+10.5 +1.8 55 +8  1006.1  1.2  752  292           
09 20.05.19 310 (СЗ) 9-11{18}  20000 м    5/1 600 м средняя, верхняя 
[Sc|Ac trans|Ci fib]
+10 +2 57 +8  1007.5  1.4  753  293    +13.3       
12 20.05.19 310 (СЗ) 9-11{15}  20000 м    3/0 средняя, верхняя 
[Ac trans|Ci fib]
+9.4 +1.2 57 +7  1008.1  0.6  754  293           
15 20.05.19 360 (С) 6{11}  20000 м    8/0 средняя, верхняя 
[Ac trans|Ci fib]
+10 +0 50 +8  1009  0.9  755  293           
18 20.05.19 350 (С) 4{10}  20000 м    9/1 1000 м средняя, верхняя 
[Sc|Ac trans|Ci fib]
+7.7 +0.5 60 +6  1010.5  1.4  756  296           
21 20.05.19 360 (С) 20000 м    9/0 средняя, верхняя 
[Ac trans|Ci fib]
+11.7 +0.6 46 +11  1012.4  757  292  +7.7        сухая 
00 21.05.19 130 (ЮВ) 6-12{12}  20000 м    9/0 верхняя 
[Cs]
+12.3 +1.7 48 +11  1015.3  2.9  759  293           
03 21.05.19 170 (Ю) 2{13}  20000 м    9/0 верхняя 
[Ci fib]
+12.4 +2.4 50 +13  1018.3  762  293           
06 21.05.19 170 (Ю) 20000 м    8/0 верхняя 
[Ci fib]
+11.4 +0.8 48 +11  1021  2.6  764  295           
09 21.05.19 140 (ЮВ) 4{11}  20000 м    10/1 600 м средняя, верхняя 
[Sc|Ac trans|Ci fib]
+6.7 +1.3 68 +5  1024.7  3.6  766  301    +16.5       
12 21.05.19 140 (ЮВ) 20000 м    8/4 600 м средняя, верхняя 
[Sc|Ac trans|Ci fib]
+5.7 +0.8 71 +4  1026.6  1.9  768  303           
15 21.05.19 160 (Ю) 20000 м    10/5 300 м средняя, верхняя 
[Sc|Ac trans|Ci fib]
+4.7 +1.6 80 +4  1027.1  0.5  768  304           
18 21.05.19 140 (ЮВ) 10 км  туман на расстоянии  10/10 200 м 
[Sc]
+3.9 +1.8 86 +3  1027.5  0.4  768  305           
21 21.05.19 160 (Ю) 10 км  туман на расстоянии  10/10 200 м 
[Sc]
+4.4 +1.8 83 +3  1027.9  0.4  769  305  +3.8        сухая 
Время (UTC), дата Ветер
(°,м/с) 
Видим.   Явления Облачность Т
(°С)
Тd
(°С)
f(%) Тe
(°С)
Pmin
(гПа)
dP
(гПа)
Po
(мм)
O2
(г/м3)
Тmin Tmax R s Состояние
почвы

Для получения пояснительной информации подведите курсор к названию столбца.

ПОГОДА Петропавловск-Камч. - архив

Всё, что Вы хотите узнать о погоде Петропавловск-Камч. - удобно и подробно!

Выберите нужную дату (начиная с 1 января 2018* года) и нажмите кнопку "Найти".
Будут отображены архивные сводки погоды по пункту Петропавловск-Камч., начиная с указанной даты.


Отображать данные в формате CSV (для использования в таблицах Excel)


Внимание! Наш архив погоды предназначен исключительно для личного некоммерческого использования в познавательных целях. Если Вам необходимы официальные справки о состоянии погоды (для производственных, юридических, коммерческих и т.п. целей), обращайтесь в органы Росгидромета.

*Примечание: данная дата относится к архиву по метеостанциям СССР (Россия, СНГ, Балтия).
Архив по метеостанциям Зарубежной Европы и Азии (кроме Китая) хранится 10 дней, по другим регионам земного шара (Китай, Африка, Америка, Австралия, Океания) - 1 день.

Петропавловск-Камч. - район местоположения метеостанции


Название, широта, долгота, высота метеостанции:
Петропавловск-Камч. (обсерватория) 53°ш. 158.6°д. 24 м над ур. моря [Российская Федерация]

Дополнительная информация

В oтличие oт бoльшинства пoгoдных сайтoв мы публикуем пoдрoбную метеoинфoрмацию в детальнoм прoфессиoнальнoм фoрмате.

Характеристики температуры и влажнoсти вoздуха измеряются на высoте 2 м в тени вдали oт зданий и деревьев.
Скoрoсть ветра измеряется на высoте 10 м (на урoвне рoста челoвека скoрoсть ветра ниже в 1.5-2 раза). Если метеoстанция нахoдится в гoрoде или в лесу, тo скoрoсть ветра занижена на 2-4 м/с пo сравнению с oткрытым местoм. Скoрoсть ветра над акватoриями крупных рек и oзёр, а также на вершинах хoлмoв на 2-5 м/с выше, чем в oбычных услoвиях.
Атмoсфернoе давление в разных тoчках местнoсти мoжет значительнo oтличаться oт давления на метеoстанции, в зависимoсти oт услoвий рельефа (при пoдъёме на 10 м давление пoнижается примернo на 1 мм рт.ст.).